Weather History for KETH - April, 2013

Change the Weather History Date:

Saturday, April 20, 2013

  Actual Average Record
Temperature  
Mean Temperature 27 °F -  
Max Temperature 35 °F 60 °F 91 °F (1980)
Min Temperature 19 °F 37 °F 19 °F (2013)
Degree Days  
Heating Degree Days 38    
Moisture  
Dew Point 22 °F    
Average Humidity 75    
Maximum Humidity 93    
Minimum Humidity 56    
Precipitation  
Precipitation 0.00 in - - ()
Sea Level Pressure  
Sea Level Pressure 30.22 in    
Wind  
Wind Speed 6 mph (SSE)    
Max Wind Speed 18 mph    
Max Gust Speed 23 mph    
Visibility 10 miles    
Events      
Averages and records for this station are not official NWS values.
T = Trace of Precipitation, MM = Missing Value Source: NWS Daily Summary

Daily Weather History Graph

Daily Weather History Graph

Search for Another Location

Airport or City:

Trip Planner

Search our weather history database for the weather conditions in past years. The results will help you decide how hot, cold, wet, or windy it might be!

Date:

Astronomy

Apr. 20, 2013 Rise Set
Actual Time 6:31 AM CDT 8:19 PM CDT
Civil Twilight 5:59 AM CDT 8:51 PM CDT
Nautical Twilight 5:20 AM CDT 9:30 PM CDT
Astronomical Twilight 4:38 AM CDT 10:12 PM CDT
Moon 2:49 PM CDT (4/20) 3:37 AM CDT (4/20)
Length of Visible Light 14h 52m
Length of Day
13h 48m
Waxing Gibbous, 71% of the Moon is Illuminated
Apr 20
Waxing Gibbous
Apr 25
Full
May 2
Last Quarter
May 9
New
May 17
First Quarter

Hourly Weather History & Observations

Time (CDT) Temp. Windchill Dew Point Humidity Pressure Visibility Wind Dir Wind Speed Gust Speed Precip Events Conditions
3:14 AM 21.2 °F 11.7 °F 17.6 °F 86% 30.14 in 10.0 mi WNW 8.1 mph - N/A   Clear
3:35 AM 21.2 °F 12.6 °F 17.6 °F 86% 30.15 in 10.0 mi West 6.9 mph - N/A   Clear
3:55 AM 21.2 °F 13.6 °F 17.6 °F 86% 30.15 in 10.0 mi West 5.8 mph - N/A   Clear
4:14 AM 21.2 °F 13.6 °F 17.6 °F 86% 30.16 in 10.0 mi West 5.8 mph - N/A   Clear
4:34 AM 19.4 °F 12.8 °F 17.6 °F 93% 30.16 in 10.0 mi West 4.6 mph - N/A   Clear
4:54 AM 19.4 °F 14.3 °F 17.6 °F 93% 30.16 in 10.0 mi West 3.5 mph - N/A   Clear
5:14 AM 19.4 °F - 17.6 °F 93% 30.17 in 10.0 mi Calm Calm - N/A   Clear
5:35 AM 19.4 °F - 17.6 °F 93% 30.18 in 10.0 mi Calm Calm - N/A   Clear
5:54 AM 19.4 °F 12.8 °F 15.8 °F 86% 30.18 in 10.0 mi West 4.6 mph - N/A   Clear
6:14 AM 19.4 °F 12.8 °F 15.8 °F 86% 30.19 in 10.0 mi West 4.6 mph - N/A   Clear
6:35 AM 19.4 °F - 15.8 °F 86% 30.20 in 10.0 mi Calm Calm - N/A   Clear
6:55 AM 19.4 °F - 15.8 °F 86% 30.20 in 10.0 mi Calm Calm - N/A   Clear
7:15 AM 19.4 °F - 17.6 °F 93% 30.21 in 10.0 mi Calm Calm - N/A   Clear
7:34 AM 21.2 °F 16.4 °F 17.6 °F 86% 30.21 in 10.0 mi WSW 3.5 mph - N/A   Clear
7:54 AM 23.0 °F - 17.6 °F 80% 30.22 in 10.0 mi Calm Calm - N/A   Clear
8:14 AM 23.0 °F 18.4 °F 17.6 °F 80% 30.23 in 10.0 mi West 3.5 mph - N/A   Clear
8:34 AM 24.8 °F - 19.4 °F 80% 30.23 in 10.0 mi Calm Calm - N/A   Clear
8:54 AM 24.8 °F 20.5 °F 19.4 °F 80% 30.23 in 10.0 mi North 3.5 mph - N/A   Clear
9:14 AM 26.6 °F 22.6 °F 19.4 °F 74% 30.23 in 10.0 mi NW 3.5 mph - N/A   Clear
9:34 AM 26.6 °F - 21.2 °F 80% 30.24 in 10.0 mi Calm Calm - N/A   Clear
9:54 AM 26.6 °F - 21.2 °F 80% 30.24 in 10.0 mi Calm Calm - N/A   Clear
10:14 AM 28.4 °F - 23.0 °F 80% 30.24 in 10.0 mi Calm Calm - N/A   Clear
10:34 AM 28.4 °F - 23.0 °F 80% 30.24 in 10.0 mi Calm Calm - N/A   Clear
10:55 AM 28.4 °F 24.6 °F 21.2 °F 74% 30.25 in 10.0 mi East 3.5 mph - N/A   Clear
11:14 AM 30.2 °F - 23.0 °F 75% 30.25 in 10.0 mi Calm Calm - N/A   Clear
11:35 AM 32.0 °F 28.7 °F 24.8 °F 75% 30.25 in 10.0 mi East 3.5 mph - N/A   Clear
11:55 AM 30.2 °F 25.4 °F 21.2 °F 69% 30.25 in 10.0 mi ESE 4.6 mph - N/A   Clear
12:14 PM 32.0 °F - 21.2 °F 64% 30.25 in 10.0 mi Calm Calm - N/A   Clear
12:34 PM 32.0 °F 27.5 °F 21.2 °F 64% 30.25 in 10.0 mi ESE 4.6 mph - N/A   Clear
12:54 PM 33.8 °F 28.6 °F 21.2 °F 60% 30.25 in 10.0 mi SE 5.8 mph - N/A   Clear
1:15 PM 33.8 °F 25.8 °F 21.2 °F 60% 30.24 in 10.0 mi SE 10.4 mph - N/A   Clear
1:35 PM 33.8 °F 28.6 °F 23.0 °F 65% 30.24 in 10.0 mi South 5.8 mph - N/A   Clear
1:54 PM 33.8 °F 26.4 °F 24.8 °F 70% 30.25 in 10.0 mi South 9.2 mph - N/A   Clear
2:15 PM 33.8 °F 25.3 °F 21.2 °F 60% 30.24 in 10.0 mi South 11.5 mph - N/A   Clear
2:34 PM 33.8 °F 25.3 °F 23.0 °F 65% 30.24 in 10.0 mi SSE 11.5 mph - N/A   Clear
2:55 PM 35.6 °F 27.5 °F 24.8 °F 65% 30.24 in 10.0 mi SSE 11.5 mph 16.1 mph N/A   Clear
3:14 PM 35.6 °F 27.5 °F 26.6 °F 70% 30.23 in 10.0 mi South 11.5 mph - N/A   Clear
3:34 PM 35.6 °F 28.0 °F 26.6 °F 70% 30.23 in 10.0 mi SSE 10.4 mph - N/A   Clear
3:54 PM 35.6 °F 28.6 °F 21.2 °F 56% 30.23 in 10.0 mi South 9.2 mph 16.1 mph N/A   Clear
4:15 PM 35.6 °F 27.1 °F 23.0 °F 60% 30.23 in 10.0 mi South 12.7 mph - N/A   Clear
4:34 PM 35.6 °F 26.6 °F 21.2 °F 56% 30.22 in 10.0 mi South 13.8 mph 18.4 mph N/A   Clear
4:54 PM 35.6 °F 27.1 °F 21.2 °F 56% 30.22 in 10.0 mi South 12.7 mph - N/A   Clear
5:14 PM 35.6 °F 27.1 °F 21.2 °F 56% 30.22 in 10.0 mi SSE 12.7 mph - N/A   Clear
5:34 PM 35.6 °F 27.5 °F 21.2 °F 56% 30.21 in 10.0 mi SSE 11.5 mph - N/A   Clear
5:54 PM 35.6 °F 25.9 °F 21.2 °F 56% 30.21 in 10.0 mi SE 16.1 mph - N/A   Clear
6:15 PM 35.6 °F 27.1 °F 21.2 °F 56% 30.21 in 10.0 mi SSE 12.7 mph 17.3 mph N/A   Clear
6:34 PM 33.8 °F 24.3 °F 21.2 °F 60% 30.21 in 10.0 mi SE 13.8 mph - N/A   Scattered Clouds
6:54 PM 33.8 °F 24.8 °F 21.2 °F 60% 30.21 in 10.0 mi SSE 12.7 mph 17.3 mph N/A   Scattered Clouds
7:15 PM 33.8 °F 25.3 °F 21.2 °F 60% 30.21 in 10.0 mi SE 11.5 mph - N/A   Mostly Cloudy
7:34 PM 33.8 °F 25.3 °F 24.8 °F 70% 30.21 in 10.0 mi SE 11.5 mph - N/A   Mostly Cloudy
7:55 PM 32.0 °F 23.0 °F 24.8 °F 75% 30.21 in 10.0 mi SE 11.5 mph - N/A   Clear
8:14 PM 32.0 °F 23.0 °F 24.8 °F 75% 30.21 in 10.0 mi SE 11.5 mph - N/A   Scattered Clouds
8:35 PM 32.0 °F 23.6 °F 24.8 °F 75% 30.21 in 10.0 mi SE 10.4 mph - N/A   Mostly Cloudy
8:55 PM 32.0 °F 22.5 °F 24.8 °F 75% 30.21 in 10.0 mi SE 12.7 mph - N/A   Overcast
9:15 PM 32.0 °F 22.5 °F 24.8 °F 75% 30.22 in 10.0 mi SE 12.7 mph - N/A   Overcast
9:55 PM 32.0 °F 22.5 °F 26.6 °F 80% 30.22 in 10.0 mi SE 12.7 mph - N/A   Overcast
10:15 PM 32.0 °F 22.5 °F 26.6 °F 80% 30.22 in 10.0 mi SSE 12.7 mph - N/A   Overcast
10:35 PM 30.2 °F 18.1 °F 26.6 °F 86% 30.22 in 10.0 mi SE 18.4 mph 23.0 mph N/A   Overcast
10:55 PM 30.2 °F 18.9 °F 28.4 °F 93% 30.22 in 7.0 mi SE 16.1 mph - N/A   Overcast
11:15 PM 30.2 °F 19.3 °F 28.4 °F 93% 30.22 in 7.0 mi SE 15.0 mph 19.6 mph N/A   Overcast
11:34 PM 30.2 °F 18.9 °F 28.4 °F 93% 30.22 in 7.0 mi SE 16.1 mph - N/A   Overcast
11:54 PM 30.2 °F 18.9 °F 28.4 °F 93% 30.21 in 7.0 mi SE 16.1 mph - N/A   Overcast